contact:dominique.lefevre@mio.osupytheas.fr, maurice.libes@osupytheas.fr, didier.mallarino@osupytheas.fr
Project:EMSO http://www.emso-fr.org/EMSO-France
Depth: 2436.0 m
Title:EMSO Ligure Ouest : Data MII capteur MICROCAT
DateTime_Computer,Latitude,Longitude,Temperature,Conductivity,Pressure,DateTime_Instrument
DateTime_Computer,Latitude,Longitude,degC,S m-1,dbar,DateTime_Instrument
2022-05-24T00:00:20Z,42.805,6.029,13.3000,4.60036,2470.624,2022-5-24T02:02:02Z
2022-05-24T00:03:23Z,42.805,6.029,13.3000,4.60033,2470.614,2022-5-24T02:05:05Z
2022-05-24T00:06:26Z,42.805,6.029,13.3001,4.60034,2470.637,2022-5-24T02:08:08Z
2022-05-24T00:09:30Z,42.805,6.029,13.3003,4.60034,2470.614,2022-5-24T02:11:11Z
2022-05-24T00:12:33Z,42.805,6.029,13.2998,4.60036,2470.624,2022-5-24T02:14:14Z
2022-05-24T00:15:36Z,42.805,6.029,13.3002,4.60033,2470.6,2022-5-24T02:17:17Z
2022-05-24T00:18:39Z,42.805,6.029,13.3002,4.60033,2470.646,2022-5-24T02:20:21Z
2022-05-24T00:21:42Z,42.805,6.029,13.3001,4.60032,2470.637,2022-5-24T02:23:24Z
2022-05-24T00:24:45Z,42.805,6.029,13.3001,4.60033,2470.624,2022-5-24T02:26:27Z
2022-05-24T00:27:48Z,42.805,6.029,13.3008,4.60033,2470.624,2022-5-24T02:29:30Z
2022-05-24T00:30:51Z,42.805,6.029,13.3000,4.60033,2470.637,2022-5-24T02:32:33Z
2022-05-24T00:33:55Z,42.805,6.029,13.3002,4.60033,2470.661,2022-5-24T02:35:36Z
2022-05-24T00:36:58Z,42.805,6.029,13.3002,4.60038,2470.684,2022-5-24T02:38:39Z
2022-05-24T00:40:01Z,42.805,6.029,13.3003,4.60033,2470.624,2022-5-24T02:41:42Z
2022-05-24T00:43:04Z,42.805,6.029,13.3002,4.60035,2470.67,2022-5-24T02:44:46Z
2022-05-24T00:46:07Z,42.805,6.029,13.3001,4.60035,2470.661,2022-5-24T02:47:49Z
2022-05-24T00:49:10Z,42.805,6.029,13.3001,4.60034,2470.646,2022-5-24T02:50:52Z
2022-05-24T00:52:13Z,42.805,6.029,13.3003,4.60033,2470.637,2022-5-24T02:53:55Z
2022-05-24T00:55:16Z,42.805,6.029,13.3002,4.60032,2470.67,2022-5-24T02:56:58Z
2022-05-24T00:58:19Z,42.805,6.029,13.3002,4.60033,2470.67,2022-5-24T03:00:01Z
2022-05-24T01:01:23Z,42.805,6.029,13.3004,4.60033,2470.637,2022-5-24T03:03:04Z
2022-05-24T01:04:26Z,42.805,6.029,13.3004,4.60036,2470.646,2022-5-24T03:06:07Z
2022-05-24T01:07:29Z,42.805,6.029,13.3004,4.60033,2470.67,2022-5-24T03:09:10Z
2022-05-24T01:10:32Z,42.805,6.029,13.3004,4.60032,2470.661,2022-5-24T03:12:14Z
2022-05-24T01:13:35Z,42.805,6.029,13.3002,4.60032,2470.661,2022-5-24T03:15:17Z
2022-05-24T01:16:38Z,42.805,6.029,13.3004,4.60033,2470.67,2022-5-24T03:18:20Z
2022-05-24T01:19:41Z,42.805,6.029,13.3004,4.60033,2470.67,2022-5-24T03:21:23Z
2022-05-24T01:22:44Z,42.805,6.029,13.3000,4.60033,2470.646,2022-5-24T03:24:26Z
2022-05-24T01:25:48Z,42.805,6.029,13.3004,4.60033,2470.67,2022-5-24T03:27:29Z
2022-05-24T01:28:51Z,42.805,6.029,13.3000,4.60033,2470.707,2022-5-24T03:30:32Z
2022-05-24T01:31:54Z,42.805,6.029,13.3004,4.60033,2470.684,2022-5-24T03:33:35Z
2022-05-24T01:34:57Z,42.805,6.029,13.3004,4.60033,2470.684,2022-5-24T03:36:39Z
2022-05-24T01:38:00Z,42.805,6.029,13.3002,4.60033,2470.661,2022-5-24T03:39:42Z
2022-05-24T01:41:03Z,42.805,6.029,13.3002,4.60033,2470.661,2022-5-24T03:42:45Z
2022-05-24T01:44:06Z,42.805,6.029,13.3000,4.60037,2470.637,2022-5-24T03:45:48Z
2022-05-24T01:47:09Z,42.805,6.029,13.3004,4.60034,2470.684,2022-5-24T03:48:51Z
2022-05-24T01:50:13Z,42.805,6.029,13.3004,4.60033,2470.624,2022-5-24T03:51:54Z
2022-05-24T01:53:16Z,42.805,6.029,13.3004,4.60035,2470.684,2022-5-24T03:54:57Z
2022-05-24T01:56:19Z,42.805,6.029,13.3002,4.60032,2470.661,2022-5-24T03:58:00Z
2022-05-24T01:59:22Z,42.805,6.029,13.2998,4.60039,2470.67,2022-5-24T04:01:04Z
2022-05-24T02:02:25Z,42.805,6.029,13.3001,4.60033,2470.707,2022-5-24T04:04:07Z
2022-05-24T02:05:28Z,42.805,6.029,13.3000,4.60032,2470.684,2022-5-24T04:07:10Z
2022-05-24T02:08:31Z,42.805,6.029,13.3004,4.60033,2470.679,2022-5-24T04:10:13Z
2022-05-24T02:11:34Z,42.805,6.029,13.3004,4.60035,2470.646,2022-5-24T04:13:16Z
2022-05-24T02:14:38Z,42.805,6.029,13.3001,4.60039,2470.661,2022-5-24T04:16:19Z
2022-05-24T02:17:41Z,42.805,6.029,13.3001,4.60032,2470.67,2022-5-24T04:19:22Z
2022-05-24T02:20:44Z,42.805,6.029,13.2999,4.60032,2470.646,2022-5-24T04:22:25Z
2022-05-24T02:23:47Z,42.805,6.029,13.3001,4.60033,2470.684,2022-5-24T04:25:29Z
2022-05-24T02:26:50Z,42.805,6.029,13.3002,4.60034,2470.67,2022-5-24T04:28:32Z
2022-05-24T02:29:53Z,42.805,6.029,13.3006,4.60033,2470.707,2022-5-24T04:31:35Z
2022-05-24T02:32:56Z,42.805,6.029,13.3006,4.60037,2470.693,2022-5-24T04:34:38Z
2022-05-24T02:35:59Z,42.805,6.029,13.3001,4.60033,2470.684,2022-5-24T04:37:41Z
2022-05-24T02:39:02Z,42.805,6.029,13.3001,4.60033,2470.646,2022-5-24T04:40:44Z
2022-05-24T02:42:06Z,42.805,6.029,13.3004,4.60034,2470.684,2022-5-24T04:43:47Z
2022-05-24T02:45:09Z,42.805,6.029,13.3001,4.60033,2470.67,2022-5-24T04:46:50Z
2022-05-24T02:48:12Z,42.805,6.029,13.3004,4.60036,2470.637,2022-5-24T04:49:54Z
2022-05-24T02:51:15Z,42.805,6.029,13.3000,4.60033,2470.67,2022-5-24T04:52:57Z
2022-05-24T02:54:18Z,42.805,6.029,13.3001,4.60036,2470.707,2022-5-24T04:56:00Z
2022-05-24T02:57:21Z,42.805,6.029,13.3002,4.60036,2470.67,2022-5-24T04:59:03Z
2022-05-24T03:00:24Z,42.805,6.029,13.3004,4.60033,2470.693,2022-5-24T05:02:06Z
2022-05-24T03:03:27Z,42.805,6.029,13.3005,4.60033,2470.67,2022-5-24T05:05:09Z
2022-05-24T03:06:31Z,42.805,6.029,13.3004,4.60033,2470.693,2022-5-24T05:08:12Z
2022-05-24T03:09:34Z,42.805,6.029,13.3001,4.60033,2470.67,2022-5-24T05:11:15Z
2022-05-24T03:12:37Z,42.805,6.029,13.3001,4.60033,2470.707,2022-5-24T05:14:18Z
2022-05-24T03:15:40Z,42.805,6.029,13.3004,4.60039,2470.67,2022-5-24T05:17:22Z
2022-05-24T03:18:43Z,42.805,6.029,13.3002,4.60034,2470.646,2022-5-24T05:20:25Z
2022-05-24T03:21:46Z,42.805,6.029,13.2999,4.60033,2470.67,2022-5-24T05:23:28Z
2022-05-24T03:24:49Z,42.805,6.029,13.3001,4.60033,2470.646,2022-5-24T05:26:31Z
2022-05-24T03:27:52Z,42.805,6.029,13.3001,4.60033,2470.693,2022-5-24T05:29:34Z
2022-05-24T03:30:56Z,42.805,6.029,13.3004,4.60034,2470.684,2022-5-24T05:32:37Z
2022-05-24T03:33:59Z,42.805,6.029,13.3000,4.60033,2470.67,2022-5-24T05:35:40Z
2022-05-24T03:37:02Z,42.805,6.029,13.3004,4.60033,2470.67,2022-5-24T05:38:43Z
2022-05-24T03:40:05Z,42.805,6.029,13.3001,4.60033,2470.67,2022-5-24T05:41:47Z
2022-05-24T03:43:08Z,42.805,6.029,13.3006,4.60033,2470.693,2022-5-24T05:44:50Z
2022-05-24T03:46:11Z,42.805,6.029,13.3005,4.60033,2470.67,2022-5-24T05:47:53Z
2022-05-24T03:49:14Z,42.805,6.029,13.3002,4.60033,2470.693,2022-5-24T05:50:56Z
2022-05-24T03:52:17Z,42.805,6.029,13.2999,4.60033,2470.693,2022-5-24T05:53:59Z
2022-05-24T03:55:21Z,42.805,6.029,13.3002,4.60033,2470.661,2022-5-24T05:57:02Z
2022-05-24T03:58:24Z,42.805,6.029,13.3002,4.60035,2470.693,2022-5-24T06:00:05Z
2022-05-24T04:01:27Z,42.805,6.029,13.3000,4.60039,2470.67,2022-5-24T06:03:08Z
2022-05-24T04:04:30Z,42.805,6.029,13.3004,4.60034,2470.67,2022-5-24T06:06:11Z
2022-05-24T04:07:33Z,42.805,6.029,13.3001,4.60034,2470.67,2022-5-24T06:09:15Z
2022-05-24T04:10:36Z,42.805,6.029,13.3001,4.60034,2470.67,2022-5-24T06:12:18Z
2022-05-24T04:13:39Z,42.805,6.029,13.3004,4.60033,2470.67,2022-5-24T06:15:21Z
2022-05-24T04:16:42Z,42.805,6.029,13.3000,4.60033,2470.67,2022-5-24T06:18:24Z
2022-05-24T04:19:45Z,42.805,6.029,13.3000,4.60042,2470.656,2022-5-24T06:21:27Z
2022-05-24T04:22:49Z,42.805,6.029,13.3004,4.60033,2470.693,2022-5-24T06:24:30Z
2022-05-24T04:25:52Z,42.805,6.029,13.3002,4.60033,2470.684,2022-5-24T06:27:33Z
2022-05-24T04:28:55Z,42.805,6.029,13.3004,4.60035,2470.646,2022-5-24T06:30:36Z
2022-05-24T04:31:58Z,42.805,6.029,13.3006,4.60033,2470.67,2022-5-24T06:33:40Z
2022-05-24T04:35:01Z,42.805,6.029,13.3004,4.60036,2470.67,2022-5-24T06:36:43Z
2022-05-24T04:38:04Z,42.805,6.029,13.3002,4.60033,2470.67,2022-5-24T06:39:46Z
2022-05-24T04:41:07Z,42.805,6.029,13.3002,4.60033,2470.67,2022-5-24T06:42:49Z
2022-05-24T04:44:10Z,42.805,6.029,13.3002,4.60033,2470.67,2022-5-24T06:45:52Z
2022-05-24T04:47:14Z,42.805,6.029,13.3001,4.60033,2470.646,2022-5-24T06:48:55Z
2022-05-24T04:50:17Z,42.805,6.029,13.3004,4.60034,2470.693,2022-5-24T06:51:58Z
2022-05-24T04:53:20Z,42.805,6.029,13.3003,4.60033,2470.624,2022-5-24T06:55:01Z
2022-05-24T04:56:23Z,42.805,6.029,13.3004,4.60033,2470.67,2022-5-24T06:58:05Z
2022-05-24T04:59:26Z,42.805,6.029,13.3002,4.60033,2470.646,2022-5-24T07:01:08Z
2022-05-24T05:02:29Z,42.805,6.029,13.2997,4.60033,2470.707,2022-5-24T07:04:11Z
2022-05-24T05:05:32Z,42.805,6.029,13.3003,4.60035,2470.67,2022-5-24T07:07:14Z
2022-05-24T05:08:35Z,42.805,6.029,13.3004,4.60033,2470.646,2022-5-24T07:10:17Z
2022-05-24T05:11:39Z,42.805,6.029,13.3001,4.60033,2470.646,2022-5-24T07:13:20Z
2022-05-24T05:14:42Z,42.805,6.029,13.3001,4.60033,2470.684,2022-5-24T07:16:23Z
2022-05-24T05:17:45Z,42.805,6.029,13.3004,4.60033,2470.661,2022-5-24T07:19:26Z
2022-05-24T05:20:48Z,42.805,6.029,13.3003,4.60033,2470.646,2022-5-24T07:22:29Z
2022-05-24T05:23:51Z,42.805,6.029,13.3001,4.60034,2470.646,2022-5-24T07:25:33Z
2022-05-24T05:26:54Z,42.805,6.029,13.3001,4.60033,2470.637,2022-5-24T07:28:36Z
2022-05-24T05:29:57Z,42.805,6.029,13.3004,4.60032,2470.614,2022-5-24T07:31:39Z
2022-05-24T05:33:00Z,42.805,6.029,13.3001,4.60032,2470.646,2022-5-24T07:34:42Z
2022-05-24T05:36:04Z,42.805,6.029,13.3002,4.60032,2470.67,2022-5-24T07:37:45Z
2022-05-24T05:39:07Z,42.805,6.029,13.3004,4.60032,2470.637,2022-5-24T07:40:48Z
2022-05-24T05:42:10Z,42.805,6.029,13.2999,4.60032,2470.637,2022-5-24T07:43:51Z
2022-05-24T05:45:13Z,42.805,6.029,13.3004,4.60033,2470.624,2022-5-24T07:46:54Z
2022-05-24T05:48:16Z,42.805,6.029,13.2998,4.60033,2470.624,2022-5-24T07:49:58Z
2022-05-24T05:51:19Z,42.805,6.029,13.3005,4.60033,2470.624,2022-5-24T07:53:01Z
2022-05-24T05:54:22Z,42.805,6.029,13.3002,4.60032,2470.624,2022-5-24T07:56:04Z
2022-05-24T05:57:25Z,42.805,6.029,13.3004,4.60032,2470.646,2022-5-24T07:59:07Z
2022-05-24T06:00:28Z,42.805,6.029,13.2999,4.60033,2470.624,2022-5-24T08:02:10Z
2022-05-24T06:03:32Z,42.805,6.029,13.3003,4.60034,2470.6,2022-5-24T08:05:13Z
2022-05-24T06:06:35Z,42.805,6.029,13.3002,4.60033,2470.6,2022-5-24T08:08:16Z
2022-05-24T06:09:38Z,42.805,6.029,13.3005,4.60032,2470.6,2022-5-24T08:11:19Z
2022-05-24T06:12:41Z,42.805,6.029,13.3000,4.60032,2470.591,2022-5-24T08:14:23Z
2022-05-24T06:15:44Z,42.805,6.029,13.3000,4.60032,2470.637,2022-5-24T08:17:26Z
2022-05-24T06:18:47Z,42.805,6.029,13.2998,4.60032,2470.637,2022-5-24T08:20:29Z
2022-05-24T06:21:50Z,42.805,6.029,13.3001,4.60035,2470.614,2022-5-24T08:23:32Z
2022-05-24T06:24:53Z,42.805,6.029,13.3003,4.60032,2470.591,2022-5-24T08:26:35Z
2022-05-24T06:27:57Z,42.805,6.029,13.3002,4.60032,2470.6,2022-5-24T08:29:38Z
2022-05-24T06:31:00Z,42.805,6.029,13.3004,4.60033,2470.614,2022-5-24T08:32:41Z
2022-05-24T06:34:03Z,42.805,6.029,13.3000,4.60032,2470.591,2022-5-24T08:35:44Z
2022-05-24T06:37:06Z,42.805,6.029,13.3000,4.60032,2470.6,2022-5-24T08:38:48Z
2022-05-24T06:40:09Z,42.805,6.029,13.3003,4.60033,2470.591,2022-5-24T08:41:51Z
2022-05-24T06:43:12Z,42.805,6.029,13.3001,4.60032,2470.591,2022-5-24T08:44:54Z
2022-05-24T06:46:15Z,42.805,6.029,13.3001,4.60031,2470.591,2022-5-24T08:47:57Z
2022-05-24T06:49:18Z,42.805,6.029,13.3004,4.60034,2470.6,2022-5-24T08:51:00Z
2022-05-24T06:52:22Z,42.805,6.029,13.3004,4.60033,2470.614,2022-5-24T08:54:03Z
2022-05-24T06:55:25Z,42.805,6.029,13.3001,4.60032,2470.577,2022-5-24T08:57:06Z
2022-05-24T06:58:28Z,42.805,6.029,13.3004,4.60033,2470.6,2022-5-24T09:00:09Z
2022-05-24T07:01:31Z,42.805,6.029,13.3000,4.60031,2470.591,2022-5-24T09:03:12Z
2022-05-24T07:04:34Z,42.805,6.029,13.3004,4.60032,2470.591,2022-5-24T09:06:16Z
2022-05-24T07:07:37Z,42.805,6.029,13.3000,4.60033,2470.567,2022-5-24T09:09:19Z
2022-05-24T07:10:40Z,42.805,6.029,13.3000,4.60033,2470.553,2022-5-24T09:12:22Z
2022-05-24T07:13:43Z,42.805,6.029,13.3002,4.60032,2470.577,2022-5-24T09:15:25Z
2022-05-24T07:16:47Z,42.805,6.029,13.3001,4.60031,2470.577,2022-5-24T09:18:28Z
2022-05-24T07:19:50Z,42.805,6.029,13.3005,4.60032,2470.577,2022-5-24T09:21:31Z
2022-05-24T07:22:53Z,42.805,6.029,13.3003,4.60031,2470.577,2022-5-24T09:24:34Z
2022-05-24T07:25:56Z,42.805,6.029,13.3004,4.60031,2470.567,2022-5-24T09:27:37Z
2022-05-24T07:28:59Z,42.805,6.029,13.3002,4.60032,2470.567,2022-5-24T09:30:41Z
2022-05-24T07:32:02Z,42.805,6.029,13.3000,4.60032,2470.567,2022-5-24T09:33:44Z
2022-05-24T07:35:05Z,42.805,6.029,13.3004,4.60032,2470.553,2022-5-24T09:36:47Z
2022-05-24T07:38:08Z,42.805,6.029,13.3003,4.60031,2470.553,2022-5-24T09:39:50Z
2022-05-24T07:41:11Z,42.805,6.029,13.3001,4.60031,2470.553,2022-5-24T09:42:53Z
2022-05-24T07:44:15Z,42.805,6.029,13.3004,4.60032,2470.567,2022-5-24T09:45:56Z
2022-05-24T07:47:18Z,42.805,6.029,13.3001,4.60032,2470.53,2022-5-24T09:48:59Z
2022-05-24T07:50:21Z,42.805,6.029,13.3000,4.60031,2470.553,2022-5-24T09:52:02Z
2022-05-24T07:53:24Z,42.805,6.029,13.3000,4.60032,2470.553,2022-5-24T09:55:06Z
2022-05-24T07:56:27Z,42.805,6.029,13.3001,4.60031,2470.567,2022-5-24T09:58:09Z
2022-05-24T07:59:30Z,42.805,6.029,13.3002,4.60031,2470.553,2022-5-24T10:01:12Z
2022-05-24T08:02:33Z,42.805,6.029,13.3002,4.60031,2470.544,2022-5-24T10:04:15Z
2022-05-24T08:05:36Z,42.805,6.029,13.2998,4.60032,2470.553,2022-5-24T10:07:18Z
2022-05-24T08:08:40Z,42.805,6.029,13.3003,4.60031,2470.553,2022-5-24T10:10:21Z
2022-05-24T08:11:43Z,42.805,6.029,13.3004,4.60035,2470.544,2022-5-24T10:13:24Z
2022-05-24T08:14:46Z,42.805,6.029,13.3006,4.60032,2470.53,2022-5-24T10:16:27Z
2022-05-24T08:17:49Z,42.805,6.029,13.3006,4.60033,2470.53,2022-5-24T10:19:31Z
2022-05-24T08:20:52Z,42.805,6.029,13.3002,4.60033,2470.53,2022-5-24T10:22:34Z
2022-05-24T08:23:55Z,42.805,6.029,13.3000,4.60031,2470.567,2022-5-24T10:25:37Z
2022-05-24T08:26:58Z,42.805,6.029,13.3004,4.60032,2470.507,2022-5-24T10:28:40Z
2022-05-24T08:30:01Z,42.805,6.029,13.3003,4.60032,2470.53,2022-5-24T10:31:43Z
2022-05-24T08:33:05Z,42.805,6.029,13.3003,4.60031,2470.507,2022-5-24T10:34:46Z
2022-05-24T08:36:08Z,42.805,6.029,13.3005,4.60032,2470.507,2022-5-24T10:37:49Z
2022-05-24T08:39:11Z,42.805,6.029,13.3001,4.60031,2470.53,2022-5-24T10:40:52Z
2022-05-24T08:42:14Z,42.805,6.029,13.3003,4.60031,2470.544,2022-5-24T10:43:56Z
2022-05-24T08:45:17Z,42.805,6.029,13.3004,4.60031,2470.483,2022-5-24T10:46:59Z
2022-05-24T08:48:20Z,42.805,6.029,13.3004,4.60031,2470.483,2022-5-24T10:50:02Z
2022-05-24T08:51:23Z,42.805,6.029,13.3002,4.60033,2470.483,2022-5-24T10:53:05Z
2022-05-24T08:54:26Z,42.805,6.029,13.3004,4.60031,2470.507,2022-5-24T10:56:08Z
2022-05-24T08:57:30Z,42.805,6.029,13.3004,4.60031,2470.497,2022-5-24T10:59:11Z
2022-05-24T09:00:33Z,42.805,6.029,13.3004,4.60033,2470.544,2022-5-24T11:02:14Z
2022-05-24T09:03:36Z,42.805,6.029,13.3001,4.60031,2470.507,2022-5-24T11:05:17Z
2022-05-24T09:06:39Z,42.805,6.029,13.3000,4.60031,2470.507,2022-5-24T11:08:21Z
2022-05-24T09:09:42Z,42.805,6.029,13.3003,4.60032,2470.483,2022-5-24T11:11:24Z
2022-05-24T09:12:45Z,42.805,6.029,13.2998,4.60031,2470.52,2022-5-24T11:14:27Z
2022-05-24T09:15:48Z,42.805,6.029,13.3000,4.60031,2470.53,2022-5-24T11:17:30Z
2022-05-24T09:18:51Z,42.805,6.029,13.3000,4.60032,2470.544,2022-5-24T11:20:33Z
2022-05-24T09:21:55Z,42.805,6.029,13.3006,4.60032,2470.474,2022-5-24T11:23:36Z
2022-05-24T09:24:58Z,42.805,6.029,13.2999,4.60032,2470.483,2022-5-24T11:26:39Z
2022-05-24T09:28:01Z,42.805,6.029,13.3002,4.60031,2470.52,2022-5-24T11:29:42Z
2022-05-24T09:31:04Z,42.805,6.029,13.2998,4.60031,2470.497,2022-5-24T11:32:46Z
2022-05-24T09:34:07Z,42.805,6.029,13.3004,4.60032,2470.497,2022-5-24T11:35:49Z
2022-05-24T09:37:10Z,42.805,6.029,13.3004,4.60032,2470.544,2022-5-24T11:38:52Z
2022-05-24T09:40:13Z,42.805,6.029,13.3000,4.60031,2470.507,2022-5-24T11:41:55Z
2022-05-24T09:43:17Z,42.805,6.029,13.3003,4.60033,2470.544,2022-5-24T11:44:58Z
2022-05-24T09:46:20Z,42.805,6.029,13.3002,4.60032,2470.52,2022-5-24T11:48:01Z
2022-05-24T09:49:23Z,42.805,6.029,13.3004,4.60032,2470.483,2022-5-24T11:51:04Z
2022-05-24T09:52:26Z,42.805,6.029,13.3004,4.60032,2470.507,2022-5-24T11:54:07Z
2022-05-24T09:55:29Z,42.805,6.029,13.3000,4.60032,2470.53,2022-5-24T11:57:11Z
2022-05-24T09:58:32Z,42.805,6.029,13.3000,4.60031,2470.497,2022-5-24T12:00:14Z
2022-05-24T10:01:35Z,42.805,6.029,13.3001,4.60032,2470.52,2022-5-24T12:03:17Z
2022-05-24T10:04:38Z,42.805,6.029,13.3004,4.60031,2470.483,2022-5-24T12:06:20Z
2022-05-24T10:07:41Z,42.805,6.029,13.3000,4.60031,2470.474,2022-5-24T12:09:23Z
2022-05-24T10:10:45Z,42.805,6.029,13.3000,4.60031,2470.47,2022-5-24T12:12:26Z
2022-05-24T10:13:48Z,42.805,6.029,13.2998,4.60031,2470.507,2022-5-24T12:15:29Z
2022-05-24T10:16:51Z,42.805,6.029,13.2999,4.60030,2470.483,2022-5-24T12:18:32Z
2022-05-24T10:19:54Z,42.805,6.029,13.3003,4.60031,2470.52,2022-5-24T12:21:36Z
2022-05-24T10:22:57Z,42.805,6.029,13.3000,4.60029,2470.483,2022-5-24T12:24:39Z
2022-05-24T10:26:00Z,42.805,6.029,13.3000,4.60031,2470.497,2022-5-24T12:27:42Z
2022-05-24T10:29:03Z,42.805,6.029,13.3000,4.60033,2470.507,2022-5-24T12:30:45Z
2022-05-24T10:32:06Z,42.805,6.029,13.2998,4.60031,2470.52,2022-5-24T12:33:48Z
2022-05-24T10:35:10Z,42.805,6.029,13.3000,4.60029,2470.507,2022-5-24T12:36:51Z
2022-05-24T10:38:13Z,42.805,6.029,13.3000,4.60029,2470.52,2022-5-24T12:39:54Z
2022-05-24T10:41:16Z,42.805,6.029,13.3000,4.60031,2470.507,2022-5-24T12:42:58Z
2022-05-24T10:44:19Z,42.805,6.029,13.2998,4.60031,2470.53,2022-5-24T12:46:01Z
2022-05-24T10:47:22Z,42.805,6.029,13.2998,4.60033,2470.497,2022-5-24T12:49:04Z
2022-05-24T10:50:25Z,42.805,6.029,13.2999,4.60029,2470.497,2022-5-24T12:52:07Z
2022-05-24T10:53:28Z,42.805,6.029,13.2996,4.60029,2470.544,2022-5-24T12:55:10Z
2022-05-24T10:56:32Z,42.805,6.029,13.3005,4.60030,2470.507,2022-5-24T12:58:13Z
2022-05-24T10:59:35Z,42.805,6.029,13.3003,4.60029,2470.52,2022-5-24T13:01:16Z
2022-05-24T11:02:38Z,42.805,6.029,13.3001,4.60030,2470.52,2022-5-24T13:04:19Z
2022-05-24T11:05:41Z,42.805,6.029,13.3002,4.60029,2470.507,2022-5-24T13:07:22Z
2022-05-24T11:08:44Z,42.805,6.029,13.2999,4.60030,2470.507,2022-5-24T13:10:26Z
2022-05-24T11:11:47Z,42.805,6.029,13.3001,4.60029,2470.483,2022-5-24T13:13:29Z
2022-05-24T11:14:50Z,42.805,6.029,13.3006,4.60031,2470.507,2022-5-24T13:16:32Z
2022-05-24T11:17:53Z,42.805,6.029,13.3003,4.60029,2470.507,2022-5-24T13:19:35Z
2022-05-24T11:20:56Z,42.805,6.029,13.2999,4.60029,2470.544,2022-5-24T13:22:38Z
2022-05-24T11:24:00Z,42.805,6.029,13.2999,4.60029,2470.53,2022-5-24T13:25:41Z
2022-05-24T11:27:03Z,42.805,6.029,13.3004,4.60031,2470.53,2022-5-24T13:28:44Z
2022-05-24T11:30:06Z,42.805,6.029,13.2998,4.60029,2470.53,2022-5-24T13:31:48Z
2022-05-24T11:33:09Z,42.805,6.029,13.2998,4.60032,2470.507,2022-5-24T13:34:51Z
2022-05-24T11:36:12Z,42.805,6.029,13.3001,4.60032,2470.507,2022-5-24T13:37:54Z
2022-05-24T11:39:15Z,42.805,6.029,13.3000,4.60029,2470.507,2022-5-24T13:40:57Z
2022-05-24T11:42:18Z,42.805,6.029,13.3001,4.60029,2470.52,2022-5-24T13:44:00Z
2022-05-24T11:45:22Z,42.805,6.029,13.2999,4.60031,2470.507,2022-5-24T13:47:03Z
2022-05-24T11:48:25Z,42.805,6.029,13.2999,4.60029,2470.553,2022-5-24T13:50:06Z
2022-05-24T11:51:28Z,42.805,6.029,13.3003,4.60031,2470.53,2022-5-24T13:53:09Z
2022-05-24T11:54:31Z,42.805,6.029,13.3002,4.60031,2470.53,2022-5-24T13:56:13Z
2022-05-24T11:57:34Z,42.805,6.029,13.3004,4.60029,2470.52,2022-5-24T13:59:16Z
2022-05-24T12:00:37Z,42.805,6.029,13.3002,4.60029,2470.553,2022-5-24T14:02:19Z
2022-05-24T12:03:40Z,42.805,6.029,13.2999,4.60030,2470.507,2022-5-24T14:05:22Z
2022-05-24T12:06:43Z,42.805,6.029,13.3000,4.60029,2470.497,2022-5-24T14:08:25Z
2022-05-24T12:09:47Z,42.805,6.029,13.2997,4.60030,2470.544,2022-5-24T14:11:28Z
2022-05-24T12:12:50Z,42.805,6.029,13.3000,4.60029,2470.507,2022-5-24T14:14:31Z
2022-05-24T12:15:53Z,42.805,6.029,13.2998,4.60029,2470.53,2022-5-24T14:17:34Z
2022-05-24T12:18:56Z,42.805,6.029,13.3001,4.60031,2470.507,2022-5-24T14:20:38Z
2022-05-24T12:21:59Z,42.805,6.029,13.3000,4.60031,2470.553,2022-5-24T14:23:41Z
2022-05-24T12:25:02Z,42.805,6.029,13.2998,4.60029,2470.553,2022-5-24T14:26:44Z
2022-05-24T12:28:05Z,42.805,6.029,13.3001,4.60030,2470.53,2022-5-24T14:29:47Z
2022-05-24T12:31:08Z,42.805,6.029,13.3001,4.60031,2470.53,2022-5-24T14:32:50Z
2022-05-24T12:34:12Z,42.805,6.029,13.2998,4.60030,2470.553,2022-5-24T14:35:53Z
2022-05-24T12:37:15Z,42.805,6.029,13.2996,4.60029,2470.591,2022-5-24T14:38:56Z
2022-05-24T12:40:18Z,42.805,6.029,13.3000,4.60031,2470.544,2022-5-24T14:41:59Z
2022-05-24T12:43:21Z,42.805,6.029,13.3003,4.60031,2470.544,2022-5-24T14:45:03Z
2022-05-24T12:46:24Z,42.805,6.029,13.3002,4.60032,2470.591,2022-5-24T14:48:06Z
2022-05-24T12:49:27Z,42.805,6.029,13.2998,4.60031,2470.567,2022-5-24T14:51:09Z
2022-05-24T12:52:30Z,42.805,6.029,13.3002,4.60031,2470.553,2022-5-24T14:54:12Z
2022-05-24T12:55:33Z,42.805,6.029,13.3004,4.60032,2470.553,2022-5-24T14:57:15Z
2022-05-24T12:58:37Z,42.805,6.029,13.2997,4.60031,2470.544,2022-5-24T15:00:18Z
2022-05-24T13:01:40Z,42.805,6.029,13.2999,4.60032,2470.6,2022-5-24T15:03:21Z
2022-05-24T13:04:43Z,42.805,6.029,13.3005,4.60031,2470.577,2022-5-24T15:06:24Z
2022-05-24T13:07:46Z,42.805,6.029,13.3005,4.60031,2470.544,2022-5-24T15:09:28Z
2022-05-24T13:10:49Z,42.805,6.029,13.3003,4.60031,2470.553,2022-5-24T15:12:31Z
2022-05-24T13:13:52Z,42.805,6.029,13.3001,4.60031,2470.553,2022-5-24T15:15:34Z
2022-05-24T13:16:55Z,42.805,6.029,13.3002,4.60035,2470.553,2022-5-24T15:18:37Z
2022-05-24T13:19:58Z,42.805,6.029,13.3004,4.60035,2470.553,2022-5-24T15:21:40Z
2022-05-24T13:23:02Z,42.805,6.029,13.3004,4.60031,2470.553,2022-5-24T15:24:43Z
2022-05-24T13:26:05Z,42.805,6.029,13.2999,4.60031,2470.567,2022-5-24T15:27:46Z
2022-05-24T13:29:08Z,42.805,6.029,13.3004,4.60031,2470.553,2022-5-24T15:30:49Z
2022-05-24T13:32:11Z,42.805,6.029,13.3004,4.60031,2470.591,2022-5-24T15:33:53Z
2022-05-24T13:35:14Z,42.805,6.029,13.3003,4.60031,2470.553,2022-5-24T15:36:56Z
2022-05-24T13:38:17Z,42.805,6.029,13.3000,4.60031,2470.553,2022-5-24T15:39:59Z
2022-05-24T13:41:20Z,42.805,6.029,13.3005,4.60030,2470.577,2022-5-24T15:43:02Z
2022-05-24T13:44:23Z,42.805,6.029,13.2999,4.60031,2470.53,2022-5-24T15:46:05Z
2022-05-24T13:47:27Z,42.805,6.029,13.3005,4.60031,2470.614,2022-5-24T15:49:08Z
2022-05-24T13:50:30Z,42.805,6.029,13.3003,4.60032,2470.553,2022-5-24T15:52:11Z
2022-05-24T13:53:33Z,42.805,6.029,13.2999,4.60031,2470.614,2022-5-24T15:55:14Z
2022-05-24T13:56:36Z,42.805,6.029,13.3004,4.60031,2470.591,2022-5-24T15:58:18Z
2022-05-24T13:59:39Z,42.805,6.029,13.3004,4.60032,2470.591,2022-5-24T16:01:21Z
2022-05-24T14:02:42Z,42.805,6.029,13.2996,4.60032,2470.591,2022-5-24T16:04:24Z
2022-05-24T14:05:45Z,42.805,6.029,13.3001,4.60031,2470.553,2022-5-24T16:07:27Z
2022-05-24T14:08:48Z,42.805,6.029,13.2999,4.60031,2470.591,2022-5-24T16:10:30Z
2022-05-24T14:11:52Z,42.805,6.029,13.3004,4.60032,2470.577,2022-5-24T16:13:33Z
2022-05-24T14:14:55Z,42.805,6.029,13.2998,4.60031,2470.577,2022-5-24T16:16:36Z
2022-05-24T14:17:58Z,42.805,6.029,13.3000,4.60031,2470.6,2022-5-24T16:19:39Z
2022-05-24T14:21:01Z,42.805,6.029,13.2998,4.60031,2470.6,2022-5-24T16:22:43Z
2022-05-24T14:24:04Z,42.805,6.029,13.3002,4.60033,2470.6,2022-5-24T16:25:46Z
2022-05-24T14:27:07Z,42.805,6.029,13.3002,4.60031,2470.577,2022-5-24T16:28:49Z
2022-05-24T14:30:10Z,42.805,6.029,13.3000,4.60031,2470.614,2022-5-24T16:31:52Z
2022-05-24T14:33:13Z,42.805,6.029,13.3001,4.60033,2470.577,2022-5-24T16:34:55Z
2022-05-24T14:36:17Z,42.805,6.029,13.3005,4.60030,2470.591,2022-5-24T16:37:58Z
2022-05-24T14:39:20Z,42.805,6.029,13.3000,4.60031,2470.6,2022-5-24T16:41:01Z
2022-05-24T14:42:23Z,42.805,6.029,13.2998,4.60032,2470.591,2022-5-24T16:44:04Z
2022-05-24T14:45:26Z,42.805,6.029,13.3000,4.60033,2470.577,2022-5-24T16:47:08Z
2022-05-24T14:48:29Z,42.805,6.029,13.2998,4.60030,2470.614,2022-5-24T16:50:11Z
2022-05-24T14:51:32Z,42.805,6.029,13.3000,4.60031,2470.553,2022-5-24T16:53:14Z
2022-05-24T14:54:35Z,42.805,6.029,13.2998,4.60031,2470.6,2022-5-24T16:56:17Z
2022-05-24T14:57:38Z,42.805,6.029,13.3003,4.60032,2470.591,2022-5-24T16:59:20Z
2022-05-24T15:00:42Z,42.805,6.029,13.2999,4.60031,2470.567,2022-5-24T17:02:23Z
2022-05-24T15:03:45Z,42.805,6.029,13.3001,4.60031,2470.591,2022-5-24T17:05:26Z
2022-05-24T15:06:48Z,42.805,6.029,13.2998,4.60031,2470.567,2022-5-24T17:08:29Z
2022-05-24T15:09:51Z,42.805,6.029,13.3004,4.60031,2470.591,2022-5-24T17:11:33Z
2022-05-24T15:12:54Z,42.805,6.029,13.3005,4.60033,2470.6,2022-5-24T17:14:36Z